Piney Island, NC

3:25 AM EDT on October 19, 2017 (GMT -0400)
Piney Island

Weather History for KNBT - September, 2013

Change the Weather History Date:

Monday, September 9, 2013

  Actual Average (KMRH) Record (KMRH)
Temperature  
Mean Temperature 78 °F -  
Max Temperature 84 °F 84 °F 91 °F (1960)
Min Temperature 73 °F 66 °F 54 °F (1970)
Cooling Degree Days 14    
Growing Degree Days 28 (Base 50)    
Moisture  
Dew Point 72 °F    
Average Humidity 78    
Maximum Humidity 97    
Minimum Humidity 65    
Precipitation  
Precipitation 0.00 in - - ()
Sea Level Pressure  
Sea Level Pressure 30.10 in    
Wind  
Wind Speed 3 mph (East)    
Max Wind Speed 10 mph    
Max Gust Speed -    
Visibility 9 miles    
Events      
Averages and records for this station are not official NWS values.
T = Trace of Precipitation, MM = Missing Value Source: NWS Daily Summary

Daily Weather History Graph

Daily Weather History Graph

Search for Another Location

Airport or City:

Trip Planner

Search our weather history database for the weather conditions in past years. The results will help you decide how hot, cold, wet, or windy it might be!

Date:

Astronomy

Sep. 09, 2013 Rise Set
Actual Time 6:44 AM EDT 7:21 PM EDT
Civil Twilight 6:18 AM EDT 7:46 PM EDT
Nautical Twilight 5:48 AM EDT 8:16 PM EDT
Astronomical Twilight 5:18 AM EDT 8:47 PM EDT
Moon 10:51 AM EDT (9/9) 9:48 PM EDT (9/9)
Length of Visible Light 13h 27m
Length of Day
12h 36m
Waxing Crescent, 19% of the Moon is Illuminated
Sep 9
Waxing Crescent
Sep 12
First Quarter
Sep 19
Full
Sep 26
Last Quarter
Oct 4
New

Hourly Weather History & Observations

Time (EDT) Temp. Heat Index Dew Point Humidity Pressure Visibility Wind Dir Wind Speed Gust Speed Precip Events Conditions
12:56 AM 75.0 °F - 70.0 °F 84% 30.02 in 10.0 mi SSE 3.5 mph - N/A   Clear
1:56 AM 75.0 °F - 72.0 °F 90% 30.02 in 10.0 mi Calm Calm - N/A   Clear
2:56 AM 75.0 °F - 72.0 °F 90% 30.01 in 10.0 mi Calm Calm - N/A   Clear
3:56 AM 73.9 °F - 73.0 °F 97% 30.01 in 7.0 mi SSE 3.5 mph - N/A   Clear
4:56 AM 73.9 °F - 73.0 °F 97% 30.02 in 8.0 mi South 3.5 mph - N/A   Clear
5:56 AM 73.0 °F - 71.1 °F 93% 30.04 in 6.0 mi Calm Calm - 0.00 in   Clear
6:56 AM 73.9 °F - 72.0 °F 93% 30.07 in 5.0 mi Calm Calm - N/A   Clear
7:56 AM 78.1 °F - 73.9 °F 87% 30.09 in 8.0 mi North 6.9 mph - N/A   Clear
8:56 AM 80.1 °F 84.5 °F 73.9 °F 81% 30.11 in 9.0 mi NNE 6.9 mph - N/A   Clear
9:56 AM 81.0 °F 86.2 °F 73.9 °F 79% 30.13 in 9.0 mi ENE 9.2 mph - N/A   Clear
10:56 AM 82.0 °F 87.4 °F 73.0 °F 74% 30.14 in 10.0 mi East 10.4 mph - N/A   Clear
11:56 AM 82.9 °F 89.4 °F 73.9 °F 74% 30.14 in 10.0 mi North - - N/A   Clear
12:56 PM 84.0 °F 89.6 °F 72.0 °F 67% 30.14 in 10.0 mi North - - N/A   Clear
1:56 PM 84.0 °F 89.6 °F 72.0 °F 67% 30.14 in 10.0 mi North - - N/A   Clear
2:56 PM 82.9 °F 88.0 °F 72.0 °F 69% 30.13 in 10.0 mi North - - N/A   Clear
3:56 PM 84.0 °F 89.0 °F 71.1 °F 65% 30.13 in 10.0 mi North - - N/A   Clear
4:56 PM 82.9 °F 87.5 °F 71.1 °F 67% 30.13 in 10.0 mi North - - N/A   Clear
5:56 PM 82.9 °F 87.5 °F 71.1 °F 67% 30.13 in 10.0 mi North - - N/A   Clear
6:56 PM 81.0 °F 85.2 °F 72.0 °F 74% 30.14 in 10.0 mi North - - N/A   Clear
7:56 PM 80.1 °F 83.6 °F 71.1 °F 74% 30.14 in 10.0 mi North - - N/A   Clear
8:56 PM 80.1 °F 83.6 °F 71.1 °F 74% 30.15 in 10.0 mi North - - N/A   Clear
9:56 PM 80.1 °F 83.6 °F 71.1 °F 74% 30.15 in 10.0 mi North - - N/A   Clear
10:56 PM 80.1 °F 83.2 °F 70.0 °F 71% 30.16 in 10.0 mi North - - N/A   Clear
11:56 PM 79.0 °F - 70.0 °F 74% 30.17 in 10.0 mi North - - N/A   Clear